Location: Rounton
(54.4000°N, 1.3500°W)
Time: 13:27:18
(UTC+00:00)

Transit 2A Rocket - Pass Details

Date: 05 December 2021
Orbit: 584 x 918 km, 66.7° (Epoch: 17 January)

Event Time Altitude Azimuth Distance (km) Brightness Sun altitude
Rises 17:41:38 0° 310° (NW) 3,559 8.9 -16.0°
Reaches altitude 10° 17:45:46 10° 284° (WNW) 2,582 8.7 -16.6°
Maximum altitude 17:48:11 13° 260° (W) 2,368 8.8 -17.0°
Drops below altitude 10° 17:50:33 10° 236° (SW) 2,519 8.8 -17.3°
Sets 17:54:30 0° 208° (SSW) 3,383 9.0 -17.9°
